Regional Weather Roundup
Issued by NWS

Home | Current Version | Previous Version | Text Only | Print | Product List | Glossary Off
Versions: 1 2 3 4 5 6 7 8 9 10 11 12 13 14 15 16 17 18 19 20 21 22 23 24 25 26 27 28 29 30 31 32 33 34 35 36 37 38 39 40 41 42 43 44 45 46 47 48 49 50

000
ASUS43 KFSD 191102
RWRSD

WEATHER ROUNDUP FOR SOUTH DAKOTA
NATIONAL WEATHER SERVICE SIOUX FALLS SD
600 AM CDT SAT AUG 19 2017

NOTE: "FAIR" INDICATES FEW OR NO CLOUDS BELOW 12,000 FEET WITH NO
SIGNIFICANT WEATHER AND/OR OBSTRUCTIONS TO VISIBILITY.


SDZ001>005-009-010-012>017-191200-
NORTHWEST AND NORTH CENTRAL SOUTH DAKOTA

CITY           SKY/WX    TMP DP  RH WIND       PRES   REMARKS
BUFFALO          N/A     58  48  69 S8        29.79F
FAITH            N/A     56  52  86 S17       29.87F
MOBRIDGE       CLEAR     62  58  86 SE12      29.86F
$$

SDZ012>016-024>037-041>051-057-063-072>074-191200-
SOUTHWEST AND SOUTH CENTRAL SOUTH DAKOTA

CITY           SKY/WX    TMP DP  RH WIND       PRES   REMARKS
RAPID CTY ARPT CLEAR     55  49  80 SE8       29.89F
PIERRE         CLEAR     59  54  83 SE9       29.88F
CUSTER         CLEAR     51  40  65 NW3       30.05F
ELLSWORTH AFB  CLEAR     62  50  65 S8        29.88F
PHILIP         CLEAR     65  54  67 SE6       29.88F
PINE RIDGE     CLEAR     65  51  60 SW12      29.92S
SPEARFISH      FAIR      68  41  37 N5        29.92S
WINNER         FAIR      63  56  78 S7        29.93F
$$

SDZ004>011-016>023-039-040-191200-
NORTHEAST SOUTH DAKOTA

CITY           SKY/WX    TMP DP  RH WIND       PRES   REMARKS
ABERDEEN       CLEAR     50  50 100 S7        29.92S
WATERTOWN      FOG       51  51 100 CALM      29.94R VSB 3/4
BROOKINGS      CLOUDY    54  53  97 CALM      29.96R
SISSETON         N/A     62  58  86 W3        29.90R
$$

SDZ017-020-022-023-036>040-048>070-191200-
SOUTHEAST SOUTH DAKOTA

CITY           SKY/WX    TMP DP  RH WIND       PRES   REMARKS
SIOUX FALLS    PTCLDY    55  55 100 SW3       29.97R
HURON          CLEAR     59  56  89 S6        29.93S
CHAMBERLAIN    CLEAR     58  58 100 CALM      29.94F
MITCHELL       CLEAR     56  56 100 CALM      29.95S
YANKTON        CLEAR     54  53  97 CALM      29.96  FOG
$$

ABBREVIATIONS USED IN REMARKS
   TC - TEMPERATURE IN CELSIUS
  WCI - WIND CHILL INDEX
   HX - HEAT INDEX
  VSB - VISIBILITY





USA.gov is the U.S. government's official web portal to all federal, state and local government web resources and services.